Location: Godzisko
(49.9648°N, 19.4576°E)
Time: 01:52:56
(UTC+00:00)

Daily predictions for brighter satellites

Satellite Brightness Start Highest point End
(mag) Time Altitude Azimuth Time Altitude Azimuth Time Altitude Azimuth
USA 308 3.3 00:09:20 61° N 00:09:20 61° N 00:13:26 10° ENE
Gbstr 26 Del rocket 3.9 00:09:23 54° SSE 00:09:23 54° SSE 00:14:34 10° ENE
SJ 16-02 2.0 00:10:38 47° E 00:10:38 47° E 00:14:44 10° NNE
Cosmos 1354 Rocket 4.4 00:10:15 49° WNW 00:10:43 50° WNW 00:15:50 10° NNE
CZ-4 R/B 4.0 00:05:48 10° N 00:10:48 66° WNW 00:10:58 66° W
Meteor 2-9 Rocket 4.5 00:07:29 10° N 00:13:21 68° ENE 00:15:22 42° SE
Cosmos 158 Rocket 4.0 00:09:27 10° NNW 00:14:25 69° ENE 00:15:22 54° ESE
COSMOS 2406 3.1 00:13:09 10° NNW 00:18:52 84° WSW 00:20:05 57° SSE
ADEOS II 3.4 00:14:21 10° NNE 00:19:04 32° E 00:20:56 26° SE
Meteor 1-27 Rocket 4.0 00:20:05 49° W 00:20:47 53° WNW 00:26:25 10° N
ATLAS 5 CENTAUR R/B 2.2 00:18:13 10° NW 00:23:43 84° SW 00:28:35 18° SE
Cosmos 1777 Rocket 3.9 00:23:19 69° WSW 00:23:50 77° WNW 00:29:05 10° NNE
Cosmos 1844 4.5 00:23:31 37° W 00:24:59 44° NW 00:30:28 10° NNE
Cosmos 1707 Rocket 3.8 00:28:29 55° NW 00:28:29 55° NW 00:32:26 10° N
Cosmos 1975 3.0 00:24:24 10° N 00:28:23 65° ENE 00:28:23 65° ENE
USA 281 4.4 00:29:00 25° W 00:29:00 25° W 00:33:45 10° NW
Okean 1 3.4 00:31:32 75° N 00:31:32 75° N 00:35:17 10° N
NPP 3.7 00:28:21 10° NNE 00:33:45 70° ESE 00:35:06 50° SSE
CZ-4C R/B 3.0 00:31:44 10° NW 00:38:48 82° NE 00:47:06 10° SE
Cosmos 2218 Rocket 4.0 00:32:43 10° NNW 00:38:48 62° W 00:40:14 49° SW
Cosmos 864 Rocket 4.5 00:34:08 10° NNW 00:40:19 65° W 00:41:55 48° SSW
AQUA 3.9 00:38:30 10° NNE 00:43:16 69° ESE 00:44:17 53° SSE
Gblst 52 Del rocket 4.2 00:41:47 50° SW 00:43:22 74° SSE 00:49:02 10° ENE
IDEFIX/ARIANE 42P 4.2 00:39:36 10° NE 00:44:03 28° E 00:47:26 15° SE
DELTA 2 DEB (DPAF) 4.2 00:44:18 46° SE 00:45:33 73° ENE 00:50:01 10° N
Cosmos 2112 Rocket 4.3 00:40:43 10° NNW 00:46:01 66° ENE 00:50:34 14° SE
Cosmos 2242 Rocket 4.2 00:46:30 40° SE 00:47:37 50° E 00:51:53 10° NNE
SL-19 R/B 4.4 00:41:22 10° NNE 00:47:38 83° ESE 00:49:50 42° S
Cosmos 2366 rocket 4.1 00:42:28 10° NNW 00:48:27 55° W 00:49:52 45° SW
SL-16 R/B 2.6 00:48:09 44° SSW 00:49:47 57° WSW 00:55:58 10° NNW
NOSS 3-4 (A) 4.1 00:43:22 10° NW 00:50:10 68° NE 00:57:48 10° SE
NOSS 3-4 (C) 4.1 00:43:28 10° NW 00:50:17 68° NE 00:57:54 10° SE
Cosmos 1340 Rocket 4.3 00:47:32 10° NNW 00:49:55 26° WNW 00:49:55 26° WNW
IRS-1D 4.2 00:46:23 10° NNE 00:51:25 50° E 00:53:42 30° SSE
CZ-4C R/B 4.2 00:52:23 25° SE 00:54:46 56° ENE 00:59:07 10° N
Meteor 1-19 Rocket 4.1 00:53:18 48° SSW 00:54:55 77° WNW 01:00:27 10° N
Cosmos 1821 Rocket 4.0 00:50:30 10° N 00:56:52 84° E 01:00:59 24° SSE
Meteor 1-29 3.1 00:55:01 10° NNE 00:58:00 68° N 00:58:00 68° N
SL-08 R/B 4.4 00:52:18 10° NNW 00:58:24 75° W 01:01:05 36° S
NOSS 3-3 (A) 3.9 00:58:28 43° SSW 01:00:36 81° SE 01:07:20 10° NE
NOSS 3-3 (C) 3.9 00:58:34 43° SSW 01:00:42 80° SE 01:07:25 10° NE
USA 305 3.7 00:59:38 26° WNW 01:01:45 49° N 01:05:55 10° ENE
ATLAS 2AS CENTAUR R/B 3.5 00:57:07 10° NW 01:04:33 57° NE 01:11:25 10° ESE
Cosmos 1844 Rocket 4.4 01:04:03 15° W 01:07:00 22° NW 01:11:19 10° NNE
Cosmos 1908 Rocket 3.5 01:02:53 10° NNW 01:07:18 68° W 01:08:07 54° SSW
Helios 1B rocket 3.1 01:06:03 10° N 01:09:55 40° WNW 01:10:19 39° W
Meteor 2-4 Rocket 3.8 01:07:12 34° S 01:09:58 87° E 01:15:54 10° NNE
SL-4 R/B 2.3 01:11:02 27° W 01:13:35 64° SSW 01:18:21 10° SE
Cosmos 1733 Rocket 4.5 01:11:05 10° NW 01:13:59 23° WNW 01:13:59 23° WNW
Meteor 1-18 Rocket 4.5 01:15:13 37° SW 01:17:22 58° WNW 01:23:04 10° N
Nadezhda 3 Rocket 4.0 01:15:50 28° S 01:19:23 89° W 01:25:46 10° N
USA 306 3.8 01:16:44 18° WNW 01:19:39 48° N 01:23:51 10° ENE
Cosmos 2082 Rocket 2.2 01:14:48 10° NW 01:20:19 57° WSW 01:23:49 22° S
Cosmos 1680 Rocket 3.5 01:15:19 10° NNW 01:20:33 61° WSW 01:23:26 26° S
X-37B 2.8 01:24:35 17° SE 01:24:35 17° SE 01:26:02 10° ESE
Resurs 1-4 Rocket 2.8 01:19:13 10° N 01:24:06 40° WNW 01:25:56 30° WSW
IKONOS-2 4.4 01:22:51 34° S 01:24:39 74° WSW 01:28:58 10° NNW
Cosmos 2084 4.5 01:24:02 27° SSE 01:25:29 35° ESE 01:29:24 10° ENE
Spot 1 3.9 01:25:03 34° S 01:26:47 72° WSW 01:31:07 10° NNW
Cosmos 1833 Rocket 3.6 01:23:30 10° NW 01:28:14 28° WSW 01:28:24 28° WSW
ADEOS Rocket 3.2 01:24:28 11° S 01:30:45 79° WSW 01:37:59 10° NNW
SL-08 R/B 3.9 01:26:56 10° SSE 01:31:45 61° ENE 01:36:31 10° N
CZ-2D R/B 3.1 01:30:27 10° N 01:35:24 35° WNW 01:37:41 25° WSW
Cosmos 1703 Rocket 3.6 01:34:02 38° SW 01:35:28 60° WNW 01:39:47 10° N
Cosmos 1782 Rocket 3.6 01:31:31 10° NNW 01:35:57 62° W 01:38:06 29° SSW
BREEZE-M R/B 3.8 01:33:22 24° W 01:36:16 89° S 01:45:42 10° E
USA 307 3.8 01:33:15 13° WNW 01:36:51 49° N 01:41:02 10° ENE
Cosmos 1934 Rocket 3.9 01:31:52 10° N 01:38:14 86° W 01:44:27 10° S
ERBS 3.8 01:38:39 20° WNW 01:40:14 30° NNW 01:43:14 10° NE
Meteor 1-28 Rocket 3.5 01:39:56 40° SW 01:40:33 45° W 01:44:09 10° NNW
Okean 2 Rocket 3.8 01:36:32 10° N 01:40:56 55° ENE 01:45:15 10° SSE
USA 234 3.3 01:35:33 10° ENE 01:42:08 76° SE 01:46:23 24° SW
Cosmos 1300 Rocket 3.8 01:38:08 10° N 01:42:36 70° E 01:47:01 10° SSE
IRS-P3 4.4 01:37:25 10° NNE 01:42:46 69° ESE 01:47:06 16° S
Cosmos 2278 Rocket 2.9 01:44:17 24° WSW 01:47:17 43° NW 01:52:42 10° NNE
Meteor 1-15 Rocket 4.3 01:42:51 10° N 01:48:27 79° ENE 01:54:03 10° SSE
SJ 16-02 2.8 01:47:37 20° W 01:49:16 24° NW 01:52:56 10° N
Cosmos 2221 Rocket 4.4 01:45:08 11° S 01:49:22 52° E 01:53:47 10° NNE
USA 308 3.7 01:45:26 10° WNW 01:49:35 50° N 01:53:47 10° E
Cosmos 1943 Rocket 2.8 01:47:44 14° S 01:52:23 53° ESE 01:57:51 10° NE
Okean 3 3.4 01:51:42 25° SSW 01:54:11 74° W 01:58:31 10° N
Cosmos 990 Rocket 4.3 01:51:51 26° SW 01:54:39 54° WNW 01:59:48 10° NNE
Gbstr 26 Del rocket 3.6 01:51:53 18° W 01:56:24 79° NNW 02:01:14 10° ENE
Cosmos 1066 Rocket 4.3 01:52:45 14° S 01:57:56 85° E 02:03:50 10° NNE
Okean 1-7 3.7 01:57:13 26° WSW 01:58:52 36° WNW 02:02:51 10° N
ADEOS II 2.6 01:53:56 10° N 01:58:53 43° WNW 02:01:52 22° SW
FALCON 9 DEB 3.7 01:59:53 30° SSW 01:59:53 30° SSW 02:02:13 10° SSE
Cosmos 1605 Rocket 3.9 01:53:47 10° N 01:59:55 90° ENE 02:06:05 10° S
CZ-2C R/B 3.8 01:58:29 10° NNE 02:02:52 35° E 02:07:21 10° SSE
ARIANE 5 R/B 2.6 02:00:51 10° NNE 02:06:09 84° ESE 02:11:11 11° SSW
Cosmos 1937 Rocket 3.5 02:03:07 21° SW 02:06:34 69° WNW 02:11:44 10° NNE
ATLAS 5 CENTAUR R/B 3.5 02:03:47 10° WNW 02:07:57 20° WSW 02:09:45 18° SW
Meteor 1-23 Rocket 4.4 02:04:18 10° S 02:09:58 81° E 02:15:46 10° NNE
Cosmos 1898 Rocket 3.9 02:08:04 20° SW 02:11:27 49° WNW 02:16:37 10° NNE
Cosmos 2369 Rocket 3.2 02:08:16 10° S 02:13:29 43° ESE 02:18:46 10° NE
Spot 4 Rocket 4.4 02:11:14 10° NNE 02:16:24 67° ESE 02:21:32 10° S
CZ-2C R/B 3.9 02:13:57 10° NNE 02:17:33 42° E 02:21:13 10° S
Cosmos 2297 3.7 02:15:39 16° SW 02:20:22 77° WNW 02:26:07 10° NNE
Sich 1 Rocket 4.1 02:18:00 10° NNW 02:22:20 42° W 02:26:39 10° SSW
ALOS 4.1 02:18:29 10° NNE 02:22:37 30° E 02:26:44 10° SSE
IDEFIX/ARIANE 42P 2.9 02:18:51 10° N 02:23:52 49° WNW 02:28:15 14° SW
CZ-4C R/B 3.6 02:20:43 10° WNW 02:27:06 32° WSW 02:34:11 10° S
Cosmos 1766 3.3 02:25:27 10° NNW 02:29:23 59° W 02:33:19 10° S
CREW DRAGON DEMO-1 DEB 2.9 02:28:01 15° W 02:30:05 61° N 02:32:48 10° ENE
Cosmos 372 Rocket 4.0 02:26:58 12° SSW 02:31:46 74° WNW 02:36:55 10° NNE
Cosmos 1378 Rocket 4.0 02:28:30 10° S 02:32:53 65° E 02:37:15 10° NNE
Gblst 52 Del rocket 4.4 02:29:15 10° W 02:35:13 76° N 02:40:45 10° E
Meteor 1-22 Rocket 4.2 02:33:29 10° NNW 02:39:02 74° W 02:44:48 10° S
NOSS 3-4 (A) 4.3 02:34:32 10° NW 02:40:55 38° WSW 02:47:54 10° S
NOSS 3-4 (C) 4.3 02:34:37 10° NW 02:41:01 38° WSW 02:48:02 10° S
USA 305 3.3 02:37:51 10° WNW 02:42:07 65° NNE 02:46:23 10° E
Cosmos 1727 Rocket 4.0 02:37:13 10° S 02:43:27 86° W 02:49:47 10° N
Cosmos 1459 Rocket 4.3 02:37:28 10° N 02:43:53 75° E 02:50:13 10° SSE
Cosmos 1733 3.9 02:42:00 10° NNW 02:45:25 32° W 02:48:48 10° SSW
Meteor 2-20 4.5 02:39:23 10° S 02:45:32 84° W 02:51:45 10° N
Cosmos 44 3.6 02:40:19 10° NW 02:45:49 89° SW 02:51:10 10° SE
Cosmos 1674 Rocket 3.5 02:41:45 10° SSW 02:46:06 80° W 02:50:32 10° N
Cosmos 1125 Rocket 4.1 02:42:48 10° S 02:47:59 59° ESE 02:53:09 10° NNE
SL-24 R/B 4.0 02:45:13 10° SSE 02:49:12 77° ENE 02:52:55 10° N
Cosmos 1805 4.4 02:48:41 10° NW 02:51:53 24° W 02:55:02 10° SW
SL-4 R/B 3.7 02:49:11 10° W 02:52:42 20° SW 02:56:09 10° S
ATLAS 2AS CENTAUR R/B 3.0 02:48:29 10° NW 02:55:26 46° WSW 03:01:51 10° S
MSX 4.4 02:50:24 10° N 02:55:46 42° WNW 03:01:08 10° SW
CZ-4B R/B 4.2 02:52:04 10° N 02:56:20 34° WNW 03:00:37 10° SW
Cosmos 1470 2.7 02:52:57 10° NNW 02:56:51 83° WSW 03:00:42 10° S
Cosmos 1656 Rocket 4.2 02:53:53 10° S 02:59:11 59° ESE 03:04:34 10° NE
X-37B 1.6 02:56:55 10° WSW 02:59:50 33° S 03:02:44 10° ESE
USA 306 3.2 02:55:41 10° WNW 03:00:00 74° NNE 03:04:18 10° ESE
RESURS DK-1 3.7 02:57:37 10° NNW 03:01:40 46° NE 03:05:41 10° SE
Cosmos 2150 Rocket 4.2 02:56:50 10° SSW 03:02:18 88° WNW 03:07:46 10° NNE
GP-B 3.1 02:58:18 10° N 03:02:45 74° W 03:07:10 10° S
Cosmos 2084 4.2 03:00:57 10° WSW 03:04:57 41° NW 03:09:04 10° NE
